Regional Weather Roundup
Issued by NWS Midland/Odessa, TX

Skip options and go directly to product.
Home | Oldest Version | Previous Version | Current Version | All | Graphics & Text | Save Text | Print | Product List | Glossary On

Skip product version selection by date and time.   
009
ASUS44 KMAF 011410
RWRMAF
MIDLAND AREA WEATHER ROUNDUP
NATIONAL WEATHER SERVICE MIDLAND TX
900 AM CDT FRI AUG 01 2014

...IN SOUTHWEST TEXAS AND SOUTHEAST NEW MEXICO...

CITY           SKY/WX    TMP DP  RH WIND       PRES   REMARKS
ALPINE         CLOUDY    64  62  96 E6        30.31R
ANDREWS        FAIR      69  59  69 E3        30.19S
ARTESIA        CLOUDY    66  66 100 N5        30.22R
BIG SPRING     PTSUNNY   74  63  67 NE7       30.18R
CARLSBAD       CLOUDY    71  64  78 SW5       30.19R
DRYDEN           N/A     80  62  54 NE12      30.11R
FORT STOCKTON  HVY RAIN  67  65  93 W8        30.22R VSB 1
GUAD PASS      RAIN      59  59 100 E18       30.30S VSB 1
HOBBS          PTSUNNY   66  59  77 E6        30.22R
MARFA          CLOUDY    64  61  88 CALM      30.28R
MIDLAND AIRPK  PTSUNNY   72  62  71 NE5       30.18R
MIDLAND INTL   CLOUDY    72  60  66 NE5       30.17R
ODESSA         PTSUNNY   71  59  65 E5        30.18R
PECOS          DRIZZLE   67  64  90 E10       30.18S
PRESIDIO       TSTM      68  65  89 W3        30.15R
SEMINOLE       CLOUDY    69  60  72 CALM      30.21S
SNYDER         MOSUNNY   68  63  84 N5        30.16R
WINK           CLOUDY    72  62  71 S6        30.19R
$$
...OTHER STATIONS IN TEXAS...

CITY           SKY/WX    TMP DP  RH WIND       PRES   REMARKS
ABILENE        PTSUNNY   70  64  81 CALM      30.12R
AMARILLO       PTSUNNY   70  55  59 NW8       30.22R
AUSTIN         CLOUDY    75  65  70 N9        30.03R
BROWNSVILLE    MOSUNNY   83  77  82 S10       29.94R
CORPUS CHRISTI PTSUNNY   83  76  79 SE3       29.98R
DALLAS FTW     CLOUDY    71  66  84 NE13      30.05R
DEL RIO        CLOUDY    80  65  59 N5        30.04R
EL PASO        LGT RAIN  67  63  87 N6        30.19R
HOUSTON INT    CLOUDY    77  72  83 NW5       29.98R
LUBBOCK        PTSUNNY   68  59  73 CALM      30.20R
SAN ANGELO     PTSUNNY   72  64  76 NE3       30.12R
SAN ANTONIO    CLOUDY    79  64  60 NE6       30.04R
WACO           CLOUDY    73  66  78 N7        30.04R
WICHITA FALLS  NOT AVBL
$$
...OTHER LOCATIONS IN NEW MEXICO...

CITY           SKY/WX    TMP DP  RH WIND       PRES   REMARKS
ALAMAGORDO     CLOUDY    64  64 100 N7        30.22S
ALBUQUERQUE    MOSUNNY   66  55  67 NE6       30.29S
CANNON AFB     CLOUDY    65  60  85 NW2       30.26R
CLOVIS         NOT AVBL
HOLLOMAN AFB   CLOUDY    64  64 100 N6        30.21R
ROSWELL        CLOUDY    68  64  87 N8        30.22R
RUIDOSO        CLOUDY    57  55  94 E3        30.38S
SANTA FE       CLOUDY    59  54  83 N6        30.35R
TRUTH OR CONSE CLOUDY    66  60  81 CALM      30.23S
TUCUMCARI      CLOUDY    69  62  78 W5        30.23S
$$

USA.gov is the U.S. government's official web portal to all federal, state and local government web resources and services.